This demonstration page uses our WeatherBlox Daily Observations layout. Learn more.

Left ArrowRight Arrow

Hourly Observations for June 27, 2019

Temp ( °F °C ) Dew Point ( °F °C ) Humidity (%) Winds ( mph kmh ) Pressure ( in mb ) Visibility ( mi km ) Precip ( " mm )
12:53 am 00:53 Clear 71 21.7 69 20.6 94 94 N N/A 30.14 1021 10 16 N/A
1:53 am 01:53 Clear 71 21.7 69 20.6 94 94 N N/A 30.15 1021 9 14 N/A
2:53 am 02:53 Clear 69 20.6 69 20.6 100 100 N N/A 30.14 1021 10 16 N/A
3:53 am 03:53 Mostly Clear 69 20.6 68 20 96 96 N N/A 30.14 1021 8 13 N/A
4:53 am 04:53 Mostly Cloudy 70 21.1 69 20.6 97 97 N N/A 30.16 1021 7 11 N/A
5:53 am 05:53 Clear 69 20.6 68 20 96 96 N N/A 30.16 1022 7 11 N/A
6:53 am 06:53 Sunny 70 21.1 69 20.6 97 97 N N/A 30.17 1022 8 13 N/A
7:53 am 07:53 Sunny 74 23.3 70 21.1 88 88 N N/A 30.18 1022 10 16 N/A
8:53 am 08:53 Sunny 76 24.4 71 21.7 85 85 N N/A 30.18 1022 10 16 N/A
9:53 am 09:53 Sunny 80 26.7 71 21.7 74 74 VRB 3 6 30.19 1022 10 16 N/A
10:53 am 10:53 Sunny 83 28.3 72 22.2 70 70 VRB 3 6 30.19 1023 10 16 N/A
11:53 am 11:53 Mostly Cloudy 83 28.3 73 22.8 72 72 VRB 3 6 30.20 1023 10 16 N/A
12:53 pm 12:53 Sunny 85 29.4 71 21.7 63 63 WSW 5 7 30.18 1022 10 16 N/A
1:53 pm 13:53 Sunny 87 30.6 67 19.4 51 51 SW 10 17 30.16 1022 10 16 N/A
2:53 pm 14:53 Sunny 88 31.1 66 18.9 48 48 WSW 8 13 30.16 1021 10 16 N/A
3:53 pm 15:53 Sunny 88 31.1 67 19.4 50 50 WSW 3 6 30.14 1021 10 16 N/A
4:53 pm 16:53 Sunny 88 31.1 65 18.3 46 46 W 8 13 30.15 1021 10 16 N/A
5:53 pm 17:53 Sunny 88 31.1 68 20 52 52 VRB 7 11 30.14 1021 10 16 N/A
6:53 pm 18:53 Sunny 86 30 66 18.9 51 51 SW 7 11 30.14 1021 10 16 N/A
7:53 pm 19:53 Sunny 82 27.8 72 22.2 72 72 N N/A 30.14 1021 10 16 N/A
8:53 pm 20:53 Sunny 80 26.7 70 21.1 71 71 N N/A 30.15 1021 10 16 N/A
9:53 pm 21:53 Clear 74 23.3 72 22.2 94 94 N N/A 30.17 1022 10 16 N/A
10:53 pm 22:53 Clear 74 23.3 69 20.6 85 85 N N/A 30.19 1022 10 16 N/A
11:53 pm 23:53 Clear 73 22.8 71 21.7 94 94 N N/A 30.21 1023 10 16 N/A

Powered by AerisWeather